Overview Statistics Trail Chart Weather Telemetry Raw packets
 

This is the latest recevied weather packets stored in our database for station/object IW1RCO-13. If no packets are shown the sender has not sent any weather packets the latest 10 day(s).

<< 27 28 29 30 31 32 33 >>
Time Temp. Humidity Pressure Rain* Wind** Luminosity Snow
1788456569 23.89° C 71% 1019 hPa - - - -
1788456272 25° C 69% 1018.5 hPa - - - -
1788455968 25° C 69% 1018.3 hPa - - - -
1788455672 24.44° C 70% 1018.7 hPa - - - -
1788455368 25° C 69% 1019.6 hPa - - - -
1788455071 25° C 69% 1018.9 hPa - - - -
1788454768 25.56° C 67% 1018.9 hPa - - - -
1788454168 26.67° C 63% 1018.5 hPa - - - -
1788453871 26.67° C 61% 1018.5 hPa - - - -
1788453567 26.67° C 60% 1018.3 hPa - - - -
1788453271 26.67° C 60% 1018.3 hPa - - - -
1788452967 26.67° C 59% 1019.1 hPa - - - -
1788452670 26.67° C 59% 1018.9 hPa - - - -
1788452367 27.78° C 55% 1018.5 hPa - - - -
1788452070 28.33° C 54% 1018.4 hPa - - - -
1788451767 28.33° C 55% 1019.3 hPa - - - -
1788451470 28.89° C 54% 1019.2 hPa - - - -
1788451166 28.89° C 54% 1019.5 hPa - - - -
1788450870 28.89° C 54% 1019.1 hPa - - - -
1788450573 29.44° C 54% 1018.1 hPa - - - -
1788450269 29.44° C 53% 1019 hPa - - - -
1788449973 30° C 51% 1019 hPa - - - -
1788449669 29.44° C 54% 1019.9 hPa - - - -
1788449372 28.33° C 58% 1018.1 hPa - - - -
1788449069 29.44° C 54% 1019.4 hPa - - - -

* Rain since midnight (hover to see other rain measurements)
** Current wind speed in m/s (hover to see current wind gust speed)